Year,Month,Day,Hour,Minute,Value (Times are PST for temperature in C)
2006,07,22,00,00,19.50
2006,07,22,00,01,19.50
2006,07,22,00,02,19.50
2006,07,22,00,03,19.50
2006,07,22,00,04,19.50
2006,07,22,00,05,19.40
2006,07,22,00,06,19.40
2006,07,22,00,07,19.40
2006,07,22,00,08,19.40
2006,07,22,00,09,19.40
2006,07,22,00,10,19.40
2006,07,22,00,11,19.40
2006,07,22,00,12,19.30
2006,07,22,00,13,19.30
2006,07,22,00,14,19.30
2006,07,22,00,15,19.30
2006,07,22,00,16,19.40
2006,07,22,00,17,19.40
2006,07,22,00,18,19.50
2006,07,22,00,19,19.50
2006,07,22,00,20,19.50
2006,07,22,00,21,19.60
2006,07,22,00,22,19.60
2006,07,22,00,23,19.70
2006,07,22,00,24,19.70
2006,07,22,00,25,19.70
2006,07,22,00,26,19.70
2006,07,22,00,27,19.70
2006,07,22,00,28,19.70
2006,07,22,00,29,19.70
2006,07,22,00,30,19.70
2006,07,22,00,31,19.70
2006,07,22,00,32,19.70
2006,07,22,00,33,19.70
2006,07,22,00,34,19.80
2006,07,22,00,35,19.80
2006,07,22,00,36,19.80
2006,07,22,00,37,19.80
2006,07,22,00,38,19.80
2006,07,22,00,39,19.80
2006,07,22,00,40,19.70
2006,07,22,00,41,19.70
2006,07,22,00,42,19.70
2006,07,22,00,43,19.60
2006,07,22,00,44,19.60
2006,07,22,00,45,19.60
2006,07,22,00,46,19.50
2006,07,22,00,47,19.50
2006,07,22,00,48,19.50
2006,07,22,00,49,19.40
2006,07,22,00,50,19.40
2006,07,22,00,51,19.40
2006,07,22,00,52,19.40
2006,07,22,00,53,19.30
2006,07,22,00,54,19.30
2006,07,22,00,55,19.30
2006,07,22,00,56,19.20
2006,07,22,00,57,19.20
2006,07,22,00,58,19.20
2006,07,22,00,59,19.20
2006,07,22,01,00,19.20
2006,07,22,01,01,19.20
2006,07,22,01,02,19.20
2006,07,22,01,03,19.20
2006,07,22,01,04,19.40
2006,07,22,01,05,19.50
2006,07,22,01,06,19.60
2006,07,22,01,07,19.80
2006,07,22,01,08,19.90
2006,07,22,01,09,19.90
2006,07,22,01,10,19.90
2006,07,22,01,11,19.90
2006,07,22,01,12,19.90
2006,07,22,01,13,19.90
2006,07,22,01,14,19.90
2006,07,22,01,15,19.90
2006,07,22,01,16,19.90
2006,07,22,01,17,19.90
2006,07,22,01,18,19.90
2006,07,22,01,19,19.90
2006,07,22,01,20,19.90
2006,07,22,01,21,19.80
2006,07,22,01,22,19.80
2006,07,22,01,23,19.80
2006,07,22,01,24,19.80
2006,07,22,01,25,19.80
2006,07,22,01,26,19.80
2006,07,22,01,27,19.80
2006,07,22,01,28,19.80
2006,07,22,01,29,19.80
2006,07,22,01,30,19.90
2006,07,22,01,31,19.90
2006,07,22,01,32,19.90
2006,07,22,01,33,19.90
2006,07,22,01,34,19.90
2006,07,22,01,35,19.90
2006,07,22,01,36,19.90
2006,07,22,01,37,19.90
2006,07,22,01,38,19.90
2006,07,22,01,39,19.90
2006,07,22,01,40,19.90
2006,07,22,01,41,19.90
2006,07,22,01,42,19.90
2006,07,22,01,43,19.90
2006,07,22,01,44,19.80
2006,07,22,01,45,19.90
2006,07,22,01,46,19.90
2006,07,22,01,47,19.90
2006,07,22,01,48,19.90
2006,07,22,01,49,19.90
2006,07,22,01,50,19.90
2006,07,22,01,51,19.90
2006,07,22,01,52,19.90
2006,07,22,01,53,19.90
2006,07,22,01,54,19.90
2006,07,22,01,55,19.90
2006,07,22,01,56,19.90
2006,07,22,01,57,19.90
2006,07,22,01,58,19.80
2006,07,22,01,59,19.80
2006,07,22,02,00,19.70
2006,07,22,02,01,19.70
2006,07,22,02,02,19.70
2006,07,22,02,03,19.70
2006,07,22,02,04,19.70
2006,07,22,02,05,19.70
2006,07,22,02,06,19.60
2006,07,22,02,07,19.60
2006,07,22,02,08,19.60
2006,07,22,02,09,19.60
2006,07,22,02,10,19.60
2006,07,22,02,11,19.60
2006,07,22,02,12,19.60
2006,07,22,02,13,19.60
2006,07,22,02,14,19.60
2006,07,22,02,15,19.60
2006,07,22,02,16,19.60
2006,07,22,02,17,19.60
2006,07,22,02,18,19.70
2006,07,22,02,19,19.80
2006,07,22,02,20,19.80
2006,07,22,02,21,19.80
2006,07,22,02,22,19.90
2006,07,22,02,23,19.90
2006,07,22,02,24,19.90
2006,07,22,02,25,20.00
2006,07,22,02,26,20.10
2006,07,22,02,27,20.10
2006,07,22,02,28,20.10
2006,07,22,02,29,20.10
2006,07,22,02,30,20.00
2006,07,22,02,31,19.90
2006,07,22,02,32,19.90
2006,07,22,02,33,19.90
2006,07,22,02,34,19.90
2006,07,22,02,35,19.90
2006,07,22,02,36,19.90
2006,07,22,02,37,20.00
2006,07,22,02,38,20.10
2006,07,22,02,39,20.10
2006,07,22,02,40,20.10
2006,07,22,02,41,20.10
2006,07,22,02,42,20.20
2006,07,22,02,43,20.20
2006,07,22,02,44,20.20
2006,07,22,02,45,20.20
2006,07,22,02,46,20.20
2006,07,22,02,47,20.20
2006,07,22,02,48,20.30
2006,07,22,02,49,20.30
2006,07,22,02,50,20.30
2006,07,22,02,51,20.30
2006,07,22,02,52,20.40
2006,07,22,02,53,20.40
2006,07,22,02,54,20.50
2006,07,22,02,55,20.50
2006,07,22,02,56,20.50
2006,07,22,02,57,20.50
2006,07,22,02,58,20.50
2006,07,22,02,59,20.50
2006,07,22,03,00,20.50
2006,07,22,03,01,20.50
2006,07,22,03,02,20.50
2006,07,22,03,03,20.50
2006,07,22,03,04,20.50
2006,07,22,03,05,20.50
2006,07,22,03,06,20.50
2006,07,22,03,07,20.50
2006,07,22,03,08,20.40
2006,07,22,03,09,20.40
2006,07,22,03,10,20.40
2006,07,22,03,11,20.40
2006,07,22,03,12,20.40
2006,07,22,03,13,20.40
2006,07,22,03,14,20.40
2006,07,22,03,15,20.40
2006,07,22,03,16,20.40
2006,07,22,03,17,20.40
2006,07,22,03,18,20.50
2006,07,22,03,19,20.50
2006,07,22,03,20,20.40
2006,07,22,03,21,20.50
2006,07,22,03,22,20.50
2006,07,22,03,23,20.50
2006,07,22,03,24,20.60
2006,07,22,03,25,20.60
2006,07,22,03,26,20.60
2006,07,22,03,27,20.60
2006,07,22,03,28,20.60
2006,07,22,03,29,20.70
2006,07,22,03,30,20.70
2006,07,22,03,31,20.70
2006,07,22,03,32,20.70
2006,07,22,03,33,20.80
2006,07,22,03,34,20.80
2006,07,22,03,35,20.80
2006,07,22,03,36,20.80
2006,07,22,03,37,20.80
2006,07,22,03,38,20.80
2006,07,22,03,39,20.80
2006,07,22,03,40,20.80
2006,07,22,03,41,20.70
2006,07,22,03,42,20.60
2006,07,22,03,43,20.60
2006,07,22,03,44,20.60
2006,07,22,03,45,20.50
2006,07,22,03,46,20.40
2006,07,22,03,47,20.40
2006,07,22,03,48,20.30
2006,07,22,03,49,20.20
2006,07,22,03,50,20.10
2006,07,22,03,51,20.10
2006,07,22,03,52,19.80
2006,07,22,03,53,19.60
2006,07,22,03,54,19.40
2006,07,22,03,55,19.30
2006,07,22,03,56,19.30
2006,07,22,03,57,19.10
2006,07,22,03,58,19.10
2006,07,22,03,59,18.90
2006,07,22,04,00,18.70
2006,07,22,04,01,18.50
2006,07,22,04,02,18.30
2006,07,22,04,03,18.10
2006,07,22,04,04,18.00
2006,07,22,04,05,17.90
2006,07,22,04,06,17.90
2006,07,22,04,07,17.80
2006,07,22,04,08,17.70
2006,07,22,04,09,17.70
2006,07,22,04,10,17.70
2006,07,22,04,11,17.70
2006,07,22,04,12,17.70
2006,07,22,04,13,17.70
2006,07,22,04,14,17.70
2006,07,22,04,15,17.70
2006,07,22,04,16,17.60
2006,07,22,04,17,17.60
2006,07,22,04,18,17.50
2006,07,22,04,19,17.50
2006,07,22,04,20,17.40
2006,07,22,04,21,17.40
2006,07,22,04,22,17.40
2006,07,22,04,23,17.30
2006,07,22,04,24,17.30
2006,07,22,04,25,17.20
2006,07,22,04,26,17.10
2006,07,22,04,27,17.00
2006,07,22,04,28,17.00
2006,07,22,04,29,16.90
2006,07,22,04,30,16.90
2006,07,22,04,31,16.80
2006,07,22,04,32,16.80
2006,07,22,04,33,16.80
2006,07,22,04,34,16.70
2006,07,22,04,35,16.70
2006,07,22,04,36,16.70
2006,07,22,04,37,16.70
2006,07,22,04,38,16.70
2006,07,22,04,39,16.70
2006,07,22,04,40,16.70
2006,07,22,04,41,16.70
2006,07,22,04,42,16.70
2006,07,22,04,43,16.70
2006,07,22,04,44,16.60
2006,07,22,04,45,16.60
2006,07,22,04,46,16.60
2006,07,22,04,47,16.60
2006,07,22,04,48,16.60
2006,07,22,04,49,16.60
2006,07,22,04,50,16.60
2006,07,22,04,51,16.50
2006,07,22,04,52,16.40
2006,07,22,04,53,16.40
2006,07,22,04,54,16.40
2006,07,22,04,55,16.40
2006,07,22,04,56,16.40
2006,07,22,04,57,16.40
2006,07,22,04,58,16.40
2006,07,22,04,59,16.40
2006,07,22,05,00,16.40
2006,07,22,05,01,16.40
2006,07,22,05,02,16.40
2006,07,22,05,03,16.40
2006,07,22,05,04,16.50
2006,07,22,05,05,16.60
2006,07,22,05,06,16.60
2006,07,22,05,07,16.60
2006,07,22,05,08,16.60
2006,07,22,05,09,16.60
2006,07,22,05,10,16.60
2006,07,22,05,11,16.60
2006,07,22,05,12,16.80
2006,07,22,05,13,16.80
2006,07,22,05,14,16.80
2006,07,22,05,15,16.80
2006,07,22,05,16,16.80
2006,07,22,05,17,16.80
2006,07,22,05,18,16.80
2006,07,22,05,19,16.80
2006,07,22,05,20,16.80
2006,07,22,05,21,16.80
2006,07,22,05,22,16.80
2006,07,22,05,23,16.80
2006,07,22,05,24,16.80
2006,07,22,05,25,16.80
2006,07,22,05,26,16.70
2006,07,22,05,27,16.70
2006,07,22,05,28,16.70
2006,07,22,05,29,16.70
2006,07,22,05,30,16.60
2006,07,22,05,31,16.50
2006,07,22,05,32,16.40
2006,07,22,05,33,16.40
2006,07,22,05,34,16.30
2006,07,22,05,35,16.20
2006,07,22,05,36,16.10
2006,07,22,05,37,16.00
2006,07,22,05,38,15.80
2006,07,22,05,39,15.70
2006,07,22,05,40,15.60
2006,07,22,05,41,15.60
2006,07,22,05,42,15.50
2006,07,22,05,43,15.40
2006,07,22,05,44,15.30
2006,07,22,05,45,15.30
2006,07,22,05,46,15.30
2006,07,22,05,47,15.30
2006,07,22,05,48,15.20
2006,07,22,05,49,15.20
2006,07,22,05,50,15.30
2006,07,22,05,51,15.30
2006,07,22,05,52,15.30
2006,07,22,05,53,15.30
2006,07,22,05,54,15.30
2006,07,22,05,55,15.40
2006,07,22,05,56,15.50
2006,07,22,05,57,15.50
2006,07,22,05,58,15.60
2006,07,22,05,59,15.60
2006,07,22,06,00,15.60
2006,07,22,06,01,15.80
2006,07,22,06,02,15.80
2006,07,22,06,03,15.90
2006,07,22,06,04,16.10
2006,07,22,06,05,16.10
2006,07,22,06,06,16.20
2006,07,22,06,07,16.30
2006,07,22,06,08,16.40
2006,07,22,06,09,16.50
2006,07,22,06,10,16.60
2006,07,22,06,11,16.70
2006,07,22,06,12,16.70
2006,07,22,06,13,16.80
2006,07,22,06,14,16.80
2006,07,22,06,15,16.80
2006,07,22,06,16,16.80
2006,07,22,06,17,16.80
2006,07,22,06,18,16.90
2006,07,22,06,19,16.90
2006,07,22,06,20,16.90
2006,07,22,06,21,16.90
2006,07,22,06,22,16.90
2006,07,22,06,23,16.90
2006,07,22,06,24,17.00
2006,07,22,06,25,17.00
2006,07,22,06,26,17.00
2006,07,22,06,27,17.00
2006,07,22,06,28,17.00
2006,07,22,06,29,17.00
2006,07,22,06,30,17.10
2006,07,22,06,31,17.10
2006,07,22,06,32,17.10
2006,07,22,06,33,17.10
2006,07,22,06,34,17.20
2006,07,22,06,35,17.20
2006,07,22,06,36,17.30
2006,07,22,06,37,17.30
2006,07,22,06,38,17.30
2006,07,22,06,39,17.30
2006,07,22,06,40,17.30
2006,07,22,06,41,17.30
2006,07,22,06,42,17.30
2006,07,22,06,43,17.40
2006,07,22,06,44,17.40
2006,07,22,06,45,17.50
2006,07,22,06,46,17.50
2006,07,22,06,47,17.50
2006,07,22,06,48,17.50
2006,07,22,06,49,17.60
2006,07,22,06,50,17.60
2006,07,22,06,51,17.70
2006,07,22,06,52,17.70
2006,07,22,06,53,17.70
2006,07,22,06,54,17.80
2006,07,22,06,55,17.80
2006,07,22,06,56,17.90
2006,07,22,06,57,17.90
2006,07,22,06,58,17.90
2006,07,22,06,59,17.90
2006,07,22,07,00,17.90
2006,07,22,07,01,18.10
2006,07,22,07,02,18.10
2006,07,22,07,03,18.20
2006,07,22,07,04,18.20
2006,07,22,07,05,18.20
2006,07,22,07,06,18.30
2006,07,22,07,07,18.40
2006,07,22,07,08,18.50
2006,07,22,07,09,18.50
2006,07,22,07,10,18.60
2006,07,22,07,11,18.80
2006,07,22,07,12,18.90
2006,07,22,07,13,18.90
2006,07,22,07,14,19.00
2006,07,22,07,15,19.10
2006,07,22,07,16,19.20
2006,07,22,07,17,19.30
2006,07,22,07,18,19.30
2006,07,22,07,19,19.50
2006,07,22,07,20,19.50
2006,07,22,07,21,19.60
2006,07,22,07,22,19.70
2006,07,22,07,23,19.70
2006,07,22,07,24,19.80
2006,07,22,07,25,19.90
2006,07,22,07,26,19.90
2006,07,22,07,27,19.90
2006,07,22,07,28,19.90
2006,07,22,07,29,20.00
2006,07,22,07,30,20.10
2006,07,22,07,31,20.10
2006,07,22,07,32,20.20
2006,07,22,07,33,20.20
2006,07,22,07,34,20.20
2006,07,22,07,35,20.30
2006,07,22,07,36,20.30
2006,07,22,07,37,20.40
2006,07,22,07,38,20.40
2006,07,22,07,39,20.40
2006,07,22,07,40,20.50
2006,07,22,07,41,20.50
2006,07,22,07,42,20.50
2006,07,22,07,43,20.60
2006,07,22,07,44,20.60
2006,07,22,07,45,20.60
2006,07,22,07,46,20.60
2006,07,22,07,47,20.70
2006,07,22,07,48,20.70
2006,07,22,07,49,20.70
2006,07,22,07,50,20.80
2006,07,22,07,51,20.80
2006,07,22,07,52,20.80
2006,07,22,07,53,20.90
2006,07,22,07,54,20.90
2006,07,22,07,55,21.00
2006,07,22,07,56,21.00
2006,07,22,07,57,21.00
2006,07,22,07,58,21.10
2006,07,22,07,59,21.10
2006,07,22,08,00,21.10
2006,07,22,08,01,21.20
2006,07,22,08,02,21.20
2006,07,22,08,03,21.20
2006,07,22,08,04,21.30
2006,07,22,08,05,21.30
2006,07,22,08,06,21.30
2006,07,22,08,07,21.30
2006,07,22,08,08,21.30
2006,07,22,08,09,21.30
2006,07,22,08,10,21.30
2006,07,22,08,11,21.30
2006,07,22,08,12,21.30
2006,07,22,08,13,21.30
2006,07,22,08,14,21.30
2006,07,22,08,15,21.30
2006,07,22,08,16,21.30
2006,07,22,08,17,21.30
2006,07,22,08,18,21.30
2006,07,22,08,19,21.30
2006,07,22,08,20,21.30
2006,07,22,08,21,21.20
2006,07,22,08,22,21.10
2006,07,22,08,23,21.00
2006,07,22,08,24,20.80
2006,07,22,08,25,20.40
2006,07,22,08,26,19.90
2006,07,22,08,27,19.70
2006,07,22,08,28,19.60
2006,07,22,08,29,19.50
2006,07,22,08,30,19.40
2006,07,22,08,31,19.40
2006,07,22,08,32,19.30
2006,07,22,08,33,19.20
2006,07,22,08,34,19.20
2006,07,22,08,35,19.10
2006,07,22,08,36,19.10
2006,07,22,08,37,19.10
2006,07,22,08,38,19.10
2006,07,22,08,39,19.10
2006,07,22,08,40,19.10
2006,07,22,08,41,19.20
2006,07,22,08,42,19.20
2006,07,22,08,43,19.20
2006,07,22,08,44,19.30
2006,07,22,08,45,19.60
2006,07,22,08,46,19.80
2006,07,22,08,47,19.90
2006,07,22,08,48,19.80
2006,07,22,08,49,19.60
2006,07,22,08,50,19.40
2006,07,22,08,51,19.00
2006,07,22,08,52,18.60
2006,07,22,08,53,18.30
2006,07,22,08,54,18.20
2006,07,22,08,55,18.10
2006,07,22,08,56,17.90
2006,07,22,08,57,17.80
2006,07,22,08,58,17.60
2006,07,22,08,59,17.70
2006,07,22,09,00,17.80
2006,07,22,09,01,17.90
2006,07,22,09,02,17.90
2006,07,22,09,03,17.90
2006,07,22,09,04,17.90
2006,07,22,09,05,18.00
2006,07,22,09,06,18.10
2006,07,22,09,07,17.90
2006,07,22,09,08,17.90
2006,07,22,09,09,17.90
2006,07,22,09,10,18.10
2006,07,22,09,11,18.20
2006,07,22,09,12,18.10
2006,07,22,09,13,17.90
2006,07,22,09,14,17.90
2006,07,22,09,15,17.90
2006,07,22,09,16,18.00
2006,07,22,09,17,18.20
2006,07,22,09,18,18.20
2006,07,22,09,19,18.30
2006,07,22,09,20,18.40
2006,07,22,09,21,18.50
2006,07,22,09,22,18.70
2006,07,22,09,23,18.80
2006,07,22,09,24,18.90
2006,07,22,09,25,19.00
2006,07,22,09,26,19.10
2006,07,22,09,27,19.10
2006,07,22,09,28,19.10
2006,07,22,09,29,19.20
2006,07,22,09,30,19.40
2006,07,22,09,31,19.60
2006,07,22,09,32,19.80
2006,07,22,09,33,19.90
2006,07,22,09,34,20.10
2006,07,22,09,35,20.20
2006,07,22,09,36,20.20
2006,07,22,09,37,20.30
2006,07,22,09,38,20.50
2006,07,22,09,39,20.60
2006,07,22,09,40,20.70
2006,07,22,09,41,20.80
2006,07,22,09,42,21.00
2006,07,22,09,43,21.10
2006,07,22,09,44,21.20
2006,07,22,09,45,21.30
2006,07,22,09,46,21.30
2006,07,22,09,47,21.50
2006,07,22,09,48,21.60
2006,07,22,09,49,21.60
2006,07,22,09,50,21.60
2006,07,22,09,51,21.60
2006,07,22,09,52,21.70
2006,07,22,09,53,21.70
2006,07,22,09,54,21.70
2006,07,22,09,55,21.70
2006,07,22,09,56,21.80
2006,07,22,09,57,21.80
2006,07,22,09,58,21.80
2006,07,22,09,59,21.90
2006,07,22,10,00,22.00
2006,07,22,10,01,22.00
2006,07,22,10,02,22.10
2006,07,22,10,03,22.10
2006,07,22,10,04,22.10
2006,07,22,10,05,22.20
2006,07,22,10,06,22.30
2006,07,22,10,07,22.40
2006,07,22,10,08,22.50
2006,07,22,10,09,22.40
2006,07,22,10,10,22.40
2006,07,22,10,11,21.80
2006,07,22,10,12,21.50
2006,07,22,10,13,20.90
2006,07,22,10,14,20.60
2006,07,22,10,15,20.40
2006,07,22,10,16,20.30
2006,07,22,10,17,20.30
2006,07,22,10,18,20.30
2006,07,22,10,19,20.50
2006,07,22,10,20,20.60
2006,07,22,10,21,20.80
2006,07,22,10,22,21.10
2006,07,22,10,23,21.20
2006,07,22,10,24,21.70
2006,07,22,10,25,22.20
2006,07,22,10,26,22.60
2006,07,22,10,27,22.90
2006,07,22,10,28,23.10
2006,07,22,10,29,23.30
2006,07,22,10,30,23.30
2006,07,22,10,31,23.40
2006,07,22,10,32,23.40
2006,07,22,10,33,23.40
2006,07,22,10,34,21.90
2006,07,22,10,35,21.00
2006,07,22,10,36,20.80
2006,07,22,10,37,20.70
2006,07,22,10,38,20.60
2006,07,22,10,39,20.60
2006,07,22,10,40,20.40
2006,07,22,10,41,20.20
2006,07,22,10,42,20.20
2006,07,22,10,43,20.00
2006,07,22,10,44,19.80
2006,07,22,10,45,19.70
2006,07,22,10,46,19.60
2006,07,22,10,47,19.60
2006,07,22,10,48,19.70
2006,07,22,10,49,19.80
2006,07,22,10,50,19.90
2006,07,22,10,51,20.10
2006,07,22,10,52,20.20
2006,07,22,10,53,20.40
2006,07,22,10,54,20.60
2006,07,22,10,55,20.70
2006,07,22,10,56,21.00
2006,07,22,10,57,21.20
2006,07,22,10,58,21.50
2006,07,22,10,59,21.70
2006,07,22,11,00,21.90
2006,07,22,11,01,22.10
2006,07,22,11,02,22.30
2006,07,22,11,03,22.50
2006,07,22,11,04,22.70
2006,07,22,11,05,22.90
2006,07,22,11,06,22.90
2006,07,22,11,07,22.90
2006,07,22,11,08,22.90
2006,07,22,11,09,22.90
2006,07,22,11,10,22.90
2006,07,22,11,11,23.00
2006,07,22,11,12,23.10
2006,07,22,11,13,23.20
2006,07,22,11,14,23.30
2006,07,22,11,15,23.30
2006,07,22,11,16,23.30
2006,07,22,11,17,23.20
2006,07,22,11,18,23.20
2006,07,22,11,19,23.30
2006,07,22,11,20,23.30
2006,07,22,11,21,23.40
2006,07,22,11,22,23.50
2006,07,22,11,23,23.70
2006,07,22,11,24,23.80
2006,07,22,11,25,23.80
2006,07,22,11,26,23.80
2006,07,22,11,27,23.70
2006,07,22,11,28,23.70
2006,07,22,11,29,23.70
2006,07,22,11,30,23.70
2006,07,22,11,31,23.70
2006,07,22,11,32,23.60
2006,07,22,11,33,23.60
2006,07,22,11,34,23.70
2006,07,22,11,35,23.70
2006,07,22,11,36,23.70
2006,07,22,11,37,23.70
2006,07,22,11,38,23.90
2006,07,22,11,39,24.10
2006,07,22,11,40,24.20
2006,07,22,11,41,24.30
2006,07,22,11,42,24.40
2006,07,22,11,43,24.60
2006,07,22,11,44,24.60
2006,07,22,11,45,24.60
2006,07,22,11,46,24.60
2006,07,22,11,47,25.00
2006,07,22,11,48,25.00
2006,07,22,11,49,25.00
2006,07,22,11,50,25.10
2006,07,22,11,51,25.20
2006,07,22,11,52,25.20
2006,07,22,11,53,25.20
2006,07,22,11,54,25.20
2006,07,22,11,55,25.40
2006,07,22,11,56,25.60
2006,07,22,11,57,25.70
2006,07,22,11,58,25.80
2006,07,22,11,59,25.90
2006,07,22,12,00,26.00
2006,07,22,12,01,26.20
2006,07,22,12,02,26.30
2006,07,22,12,03,26.40
2006,07,22,12,04,26.50
2006,07,22,12,05,26.60
2006,07,22,12,06,26.60
2006,07,22,12,07,26.60
2006,07,22,12,08,26.70
2006,07,22,12,09,26.80
2006,07,22,12,10,26.80
2006,07,22,12,11,26.90
2006,07,22,12,12,27.00
2006,07,22,12,13,27.10
2006,07,22,12,14,27.20
2006,07,22,12,15,27.20
2006,07,22,12,16,27.30
2006,07,22,12,17,27.30
2006,07,22,12,18,27.30
2006,07,22,12,19,27.40
2006,07,22,12,20,27.40
2006,07,22,12,21,27.40
2006,07,22,12,22,27.30
2006,07,22,12,23,27.20
2006,07,22,12,24,27.20
2006,07,22,12,25,27.20
2006,07,22,12,26,27.30
2006,07,22,12,27,27.30
2006,07,22,12,28,27.40
2006,07,22,12,29,27.60
2006,07,22,12,30,27.70
2006,07,22,12,31,27.80
2006,07,22,12,32,28.00
2006,07,22,12,33,28.00
2006,07,22,12,34,28.10
2006,07,22,12,35,28.20
2006,07,22,12,36,28.20
2006,07,22,12,37,28.20
2006,07,22,12,38,28.20
2006,07,22,12,39,28.30
2006,07,22,12,40,28.40
2006,07,22,12,41,28.50
2006,07,22,12,42,28.60
2006,07,22,12,43,28.60
2006,07,22,12,44,28.60
2006,07,22,12,45,28.60
2006,07,22,12,46,28.70
2006,07,22,12,47,28.70
2006,07,22,12,48,28.80
2006,07,22,12,49,28.80
2006,07,22,12,50,28.80
2006,07,22,12,51,28.90
2006,07,22,12,52,28.90
2006,07,22,12,53,28.90
2006,07,22,12,54,28.90
2006,07,22,12,55,28.90
2006,07,22,12,56,28.90
2006,07,22,12,57,28.90
2006,07,22,12,58,28.90
2006,07,22,12,59,29.10
2006,07,22,13,00,29.00
2006,07,22,13,01,29.00
2006,07,22,13,02,29.10
2006,07,22,13,03,29.20
2006,07,22,13,04,29.30
2006,07,22,13,05,29.40
2006,07,22,13,06,29.60
2006,07,22,13,07,29.10
2006,07,22,13,08,28.10
2006,07,22,13,09,27.30
2006,07,22,13,10,26.40
2006,07,22,13,11,25.30
2006,07,22,13,12,24.90
2006,07,22,13,13,24.40
2006,07,22,13,14,24.10
2006,07,22,13,15,23.80
2006,07,22,13,16,23.70
2006,07,22,13,17,23.70
2006,07,22,13,18,23.70
2006,07,22,13,19,23.70
2006,07,22,13,20,23.70
2006,07,22,13,21,23.70
2006,07,22,13,22,23.90
2006,07,22,13,23,24.10
2006,07,22,13,24,24.20
2006,07,22,13,25,24.10
2006,07,22,13,26,23.70
2006,07,22,13,27,23.60
2006,07,22,13,28,23.40
2006,07,22,13,29,23.40
2006,07,22,13,30,23.40
2006,07,22,13,31,23.40
2006,07,22,13,32,23.50
2006,07,22,13,33,23.70
2006,07,22,13,34,23.70
2006,07,22,13,35,23.90
2006,07,22,13,36,24.10
2006,07,22,13,37,24.10
2006,07,22,13,38,24.30
2006,07,22,13,39,24.30
2006,07,22,13,40,24.30
2006,07,22,13,41,24.20
2006,07,22,13,42,24.40
2006,07,22,13,43,24.50
2006,07,22,13,44,24.60
2006,07,22,13,45,24.60
2006,07,22,13,46,24.70
2006,07,22,13,47,24.80
2006,07,22,13,48,24.90
2006,07,22,13,49,25.00
2006,07,22,13,50,25.00
2006,07,22,13,51,25.30
2006,07,22,13,52,25.40
2006,07,22,13,53,25.60
2006,07,22,13,54,25.90
2006,07,22,13,55,25.90
2006,07,22,13,56,25.50
2006,07,22,13,57,25.30
2006,07,22,13,58,25.00
2006,07,22,13,59,24.90
2006,07,22,14,00,24.80
2006,07,22,14,01,24.70
2006,07,22,14,02,24.70
2006,07,22,14,03,24.80
2006,07,22,14,04,24.90
2006,07,22,14,05,24.90
2006,07,22,14,06,24.90
2006,07,22,14,07,25.20
2006,07,22,14,08,25.10
2006,07,22,14,09,24.90
2006,07,22,14,10,24.60
2006,07,22,14,11,24.30
2006,07,22,14,12,24.10
2006,07,22,14,13,24.10
2006,07,22,14,14,24.30
2006,07,22,14,15,24.40
2006,07,22,14,16,24.40
2006,07,22,14,17,24.70
2006,07,22,14,18,25.00
2006,07,22,14,19,25.10
2006,07,22,14,20,25.30
2006,07,22,14,21,25.60
2006,07,22,14,22,25.90
2006,07,22,14,23,26.20
2006,07,22,14,24,26.30
2006,07,22,14,25,26.30
2006,07,22,14,26,26.20
2006,07,22,14,27,25.80
2006,07,22,14,28,25.60
2006,07,22,14,29,25.30
2006,07,22,14,30,25.30
2006,07,22,14,31,25.20
2006,07,22,14,32,25.20
2006,07,22,14,33,25.30
2006,07,22,14,34,25.40
2006,07,22,14,35,25.50
2006,07,22,14,36,25.70
2006,07,22,14,37,25.80
2006,07,22,14,38,26.00
2006,07,22,14,39,26.00
2006,07,22,14,40,26.00
2006,07,22,14,41,26.20
2006,07,22,14,42,26.50
2006,07,22,14,43,26.60
2006,07,22,14,44,26.30
2006,07,22,14,45,25.90
2006,07,22,14,46,25.50
2006,07,22,14,47,25.10
2006,07,22,14,48,24.70
2006,07,22,14,49,24.50
2006,07,22,14,50,24.30
2006,07,22,14,51,24.10
2006,07,22,14,52,23.90
2006,07,22,14,53,23.80
2006,07,22,14,54,23.80
2006,07,22,14,55,23.70
2006,07,22,14,56,23.60
2006,07,22,14,57,23.60
2006,07,22,14,58,23.40
2006,07,22,14,59,23.30
2006,07,22,15,00,23.30
2006,07,22,15,01,23.30
2006,07,22,15,02,23.30
2006,07,22,15,03,23.30
2006,07,22,15,04,23.30
2006,07,22,15,05,23.10
2006,07,22,15,06,22.90
2006,07,22,15,07,22.80
2006,07,22,15,08,22.80
2006,07,22,15,09,22.90
2006,07,22,15,10,23.00
2006,07,22,15,11,23.10
2006,07,22,15,12,23.20
2006,07,22,15,13,23.20
2006,07,22,15,14,23.00
2006,07,22,15,15,22.90
2006,07,22,15,16,22.90
2006,07,22,15,17,22.90
2006,07,22,15,18,23.10
2006,07,22,15,19,23.30
2006,07,22,15,20,23.50
2006,07,22,15,21,23.70
2006,07,22,15,22,23.70
2006,07,22,15,23,23.70
2006,07,22,15,24,23.70
2006,07,22,15,25,23.70
2006,07,22,15,26,23.70
2006,07,22,15,27,23.70
2006,07,22,15,28,23.70
2006,07,22,15,29,23.80
2006,07,22,15,30,23.90
2006,07,22,15,31,23.90
2006,07,22,15,32,23.90
2006,07,22,15,33,23.90
2006,07,22,15,34,24.10
2006,07,22,15,35,24.20
2006,07,22,15,36,24.20
2006,07,22,15,37,24.30
2006,07,22,15,38,24.40
2006,07,22,15,39,24.50
2006,07,22,15,40,24.80
2006,07,22,15,41,25.00
2006,07,22,15,42,25.20
2006,07,22,15,43,25.40
2006,07,22,15,44,25.40
2006,07,22,15,45,25.40
2006,07,22,15,46,25.30
2006,07,22,15,47,25.40
2006,07,22,15,48,25.40
2006,07,22,15,49,25.40
2006,07,22,15,50,25.40
2006,07,22,15,51,25.40
2006,07,22,15,52,25.30
2006,07,22,15,53,25.20
2006,07,22,15,54,25.00
2006,07,22,15,55,24.80
2006,07,22,15,56,24.70
2006,07,22,15,57,24.60
2006,07,22,15,58,24.50
2006,07,22,15,59,24.40
2006,07,22,16,00,24.30
2006,07,22,16,01,24.20
2006,07,22,16,02,24.30
2006,07,22,16,03,24.30
2006,07,22,16,04,24.30
2006,07,22,16,05,24.40
2006,07,22,16,06,24.50
2006,07,22,16,07,24.50
2006,07,22,16,08,24.40
2006,07,22,16,09,24.30
2006,07,22,16,10,24.30
2006,07,22,16,11,24.30
2006,07,22,16,12,24.40
2006,07,22,16,13,24.40
2006,07,22,16,14,24.50
2006,07,22,16,15,24.60
2006,07,22,16,16,24.80
2006,07,22,16,17,24.90
2006,07,22,16,18,25.00
2006,07,22,16,19,25.10
2006,07,22,16,20,25.20
2006,07,22,16,21,25.10
2006,07,22,16,22,25.00
2006,07,22,16,23,25.00
2006,07,22,16,24,24.90
2006,07,22,16,25,24.90
2006,07,22,16,26,25.00
2006,07,22,16,27,25.00
2006,07,22,16,28,25.10
2006,07,22,16,29,25.00
2006,07,22,16,30,24.80
2006,07,22,16,31,24.70
2006,07,22,16,32,24.70
2006,07,22,16,33,24.70
2006,07,22,16,34,24.80
2006,07,22,16,35,24.80
2006,07,22,16,36,24.90
2006,07,22,16,37,24.80
2006,07,22,16,38,24.90
2006,07,22,16,39,24.80
2006,07,22,16,40,24.70
2006,07,22,16,41,24.80
2006,07,22,16,42,24.90
2006,07,22,16,43,25.00
2006,07,22,16,44,25.10
2006,07,22,16,45,25.20
2006,07,22,16,46,25.30
2006,07,22,16,47,25.30
2006,07,22,16,48,25.30
2006,07,22,16,49,25.60
2006,07,22,16,50,25.60
2006,07,22,16,51,25.70
2006,07,22,16,52,25.80
2006,07,22,16,53,25.80
2006,07,22,16,54,25.90
2006,07,22,16,55,25.90
2006,07,22,16,56,25.90
2006,07,22,16,57,26.00
2006,07,22,16,58,26.00
2006,07,22,16,59,26.00
2006,07,22,17,00,26.10
2006,07,22,17,01,26.20
2006,07,22,17,02,26.20
2006,07,22,17,03,26.30
2006,07,22,17,04,26.30
2006,07,22,17,05,26.30
2006,07,22,17,06,26.30
2006,07,22,17,07,26.10
2006,07,22,17,08,26.20
2006,07,22,17,09,26.20
2006,07,22,17,10,26.30
2006,07,22,17,11,26.40
2006,07,22,17,12,26.40
2006,07,22,17,13,26.50
2006,07,22,17,14,26.60
2006,07,22,17,15,26.60
2006,07,22,17,16,26.60
2006,07,22,17,17,26.60
2006,07,22,17,18,26.50
2006,07,22,17,19,26.50